This is the latest recevied weather packets stored in our database for station/object K5FEP. If no packets are shown the sender has not sent any weather packets the latest 10 day(s).
| Time | Temp. | Humidity | Pressure | Rain* | Wind** | Luminosity | Snow |
|---|---|---|---|---|---|---|---|
| 1788037281 | 29.44° C | 60% | 1020.4 hPa | 0 mm | - | 91 W/m² | - |
| 1788036980 | 29.44° C | 59% | 1020.5 hPa | 0 mm | - | 100 W/m² | - |
| 1788036677 | 30° C | 58% | 1020.4 hPa | 0 mm | - | 113 W/m² | - |
| 1788036373 | 30° C | 58% | 1020.6 hPa | 0 mm | - | 226 W/m² | - |
| 1788036067 | 30° C | 57% | 1020.6 hPa | 0 mm | - | 194 W/m² | - |
| 1788035766 | 30° C | 57% | 1020.4 hPa | 0 mm | - | 256 W/m² | - |
| 1788035462 | 30° C | 56% | 1020.5 hPa | 0 mm | - | 235 W/m² | - |
| 1788035157 | 30.56° C | 54% | 1020.4 hPa | 0 mm | - | 187 W/m² | - |
| 1788034853 | 31.11° C | 55% | 1020.6 hPa | 0 mm | - | 209 W/m² | - |
| 1788034549 | 30.56° C | 54% | 1020.4 hPa | 0 mm | - | 460 W/m² | - |
| 1788034245 | 30.56° C | 55% | 1020.7 hPa | 0 mm | - | 247 W/m² | - |
| 1788033944 | 30.56° C | 55% | 1020.7 hPa | 0 mm | - | 208 W/m² | - |
| 1788033640 | 31.11° C | 54% | 1020.7 hPa | 0 mm | - | 197 W/m² | - |
| 1788033339 | 30.56° C | 56% | 1020.6 hPa | 0 mm | - | 752 W/m² | - |
| 1788033034 | 30.56° C | 56% | 1020.8 hPa | 0 mm | - | 675 W/m² | - |
| 1788032734 | 30° C | 59% | 1020.8 hPa | 0 mm | - | 429 W/m² | - |
| 1788032429 | 29.44° C | 60% | 1020.9 hPa | 0 mm | - | 487 W/m² | - |
| 1788032125 | 29.44° C | 58% | 1020.9 hPa | 0 mm | - | 207 W/m² | - |
| 1788031822 | 29.44° C | 59% | 1021.1 hPa | 0 mm | - | 310 W/m² | - |
| 1788031521 | 29.44° C | 59% | 1020.9 hPa | 0 mm | - | 216 W/m² | - |
| 1788031215 | 30° C | 61% | 1021 hPa | 0 mm | - | 191 W/m² | - |
| 1788030914 | 30° C | 58% | 1021.1 hPa | 0 mm | - | 195 W/m² | - |
| 1788030614 | 30.56° C | 57% | 1021 hPa | 0 mm | - | 296 W/m² | - |
| 1788030314 | 31.11° C | 56% | 1021.1 hPa | 0 mm | - | 260 W/m² | - |
| 1788030010 | 30.56° C | 59% | 1021.2 hPa | 0 mm | - | 866 W/m² | - |
* Rain latest hour (hover to see other rain measurements)
** Current wind speed in m/s (hover to see current wind gust speed)